GSAT0213

Last updated on Thu Dec 15 2016 00:17:11 GMT+0000 (Coordinated Universal Time)

1 41861U 16069C 16347.80550543 .00000081 00000-0 00000+0 0 9991 2 41861 54.5760 197.5925 0003459 38.4203 321.6976 1.72627096 428
UTC large
Height (km)
Speed (km/s)
/
Latitude / Longitude
Inclination (degrees)
Orbital Period (minutes)
Azimuth
Elevation
Range (km)
Doppler Factor

Next 0 passes for location: London (51.5072 / 0.1276)

Sorry there are no passes over London.